Wind_Speed
7 7 7 7 6 6 6 5 6 6 5 6 7 8 9 9 9 8 8 7 7 7 7 6 6 6 6 6 5 5 6 6 6 6 5 5 5 5 5 5 4 4 5 5 5 6 6 6 5
8 8 8 7 6 6 6 7 8 7 6 7 7 8 9 9 9 8 8 7 7 7 7 7 6 6 6 5 5 6 6 6 6 6 6 5 6 6 6 6 5 5 5 6 5 5 6 6 6
9 9 9 8 7 7 7 7 8 8 7 7 7 8 9 9 10 9 9 8 7 7 8 8 7 7 6 6 5 5 6 7 7 6 6 6 6 7 7 7 6 6 6 6 6 6 7 7 7
11 10 10 9 8 8 8 8 7 7 7 7 7 7 8 9 10 10 10 9 9 9 8 8 8 7 7 7 5 6 6 7 7 7 6 7 7 8 7 7 7 7 7 7 7 7 7 7 7
11 11 11 9 9 9 9 8 8 8 7 6 7 7 8 9 10 10 10 10 10 10 9 8 7 8 8 7 6 6 6 6 7 7 6 6 7 7 7 7 7 7 6 6 7 7 7 7 7
12 12 11 11 11 11 10 9 9 9 8 8 8 9 9 9 10 10 10 10 11 11 10 9 9 9 8 8 7 7 7 7 7 7 6 6 7 7 7 8 7 7 7 7 7 7 8 8 8
13 13 12 12 12 12 11 11 11 10 10 9 9 9 10 10 11 11 11 11 11 11 11 10 10 9 8 8 8 8 8 7 8 7 7 7 7 7 7 7 7 7 8 8 8 8 9 9 9
14 14 13 13 13 12 12 12 12 12 11 10 10 10 10 11 11 12 12 11 12 12 11 11 10 9 8 9 9 9 8 8 8 7 8 7 7 8 8 8 7 8 8 8 8 9 10 10 10
15 15 14 14 14 13 13 13 13 12 12 11 11 11 10 10 11 13 12 11 11 11 11 10 9 8 8 9 9 9 10 8 8 8 8 9 9 9 9 9 8 9 9 9 9 10 10 10 10
16 15 14 14 14 14 14 14 14 13 12 12 12 11 9 9 11 11 11 11 11 10 10 9 8 9 9 9 9 10 10 8 8 8 8 9 9 9 10 9 9 9 9 10 10 10 11 10 10
16 15 15 15 15 15 14 14 15 14 13 12 12 11 10 9 10 10 10 10 10 10 10 9 8 9 9 9 9 9 9 8 8 8 9 9 9 10 11 10 10 10 10 10 10 10 11 11 11
16 15 15 15 15 15 14 14 15 15 13 13 13 12 11 10 10 9 9 9 10 10 9 10 9 9 9 9 9 9 9 9 9 9 9 9 9 10 11 11 11 11 11 11 11 11 11 11 12
16 15 16 17 16 15 15 15 15 15 14 14 14 14 13 11 10 10 10 10 10 11 10 10 9 9 10 9 9 9 9 9 9 10 10 10 10 11 12 12 11 12 12 12 12 12 12 12 13
17 16 16 17 17 16 16 15 15 14 15 15 15 14 14 12 11 11 11 11 11 10 10 10 10 9 9 9 9 9 9 10 10 10 10 11 11 12 12 12 12 13 13 13 13 12 13 13 13
18 16 16 16 17 18 17 15 15 16 16 16 16 15 14 12 11 12 12 11 11 11 11 10 9 9 8 9 9 9 9 11 11 12 11 11 12 12 12 13 14 14 14 14 14 13 14 14 14
18 17 17 16 18 18 18 16 16 17 17 16 15 15 14 13 12 12 12 12 11 11 10 10 9 9 8 8 9 10 11 11 11 12 12 12 11 12 13 14 14 13 14 14 15 14 14 15 15
19 18 17 17 18 18 19 18 16 16 17 17 16 16 15 14 13 13 13 12 11 11 10 11 10 9 9 9 9 10 11 11 12 12 13 13 13 13 13 13 14 14 14 14 14 14 16 16 16
20 19 18 18 19 19 19 18 17 17 18 18 17 17 15 15 14 13 13 12 11 11 11 12 12 11 11 11 11 12 12 12 12 13 13 13 13 13 13 13 14 14 14 14 14 15 16 16 16
21 20 19 19 20 20 20 19 17 18 19 18 17 17 16 15 14 13 13 12 12 12 12 13 13 13 13 13 14 14 13 14 14 13 13 14 14 14 14 13 14 14 14 15 15 15 16 16 17
22 21 19 20 21 21 20 20 18 19 18 17 17 17 15 15 15 14 14 14 14 14 13 13 13 14 14 15 15 15 14 14 14 14 14 14 14 13 13 14 15 15 15 15 15 15 16 16 16
22 21 20 20 22 22 21 20 20 20 19 18 18 17 16 16 16 16 16 16 15 14 13 13 14 14 15 15 16 16 16 15 14 15 15 14 14 14 14 14 15 16 16 16 16 16 16 16 16
22 21 20 21 22 22 22 21 19 20 19 18 18 17 16 17 16 16 16 16 16 15 15 15 15 16 16 16 17 17 16 15 14 14 14 14 14 14 14 15 16 16 16 16 16 16 16 16 16
21 21 21 22 22 22 22 22 20 20 19 18 18 18 17 17 16 16 16 16 16 16 16 16 17 18 17 18 18 16 16 15 14 14 13 14 15 15 15 16 16 16 16 16 16 16 16 16 16
20 21 22 22 23 22 21 22 21 20 19 18 19 18 18 17 17 16 17 17 17 16 17 17 18 18 18 18 17 16 15 15 14 13 13 14 16 16 16 16 16 16 16 16 17 16 17 17 17
19 20 21 22 22 21 20 21 20 19 18 18 19 19 18 18 18 18 19 18 18 18 18 18 17 18 18 17 17 15 15 15 14 13 14 15 16 16 17 17 16 17 17 17 17 17 17 17 17
19 20 21 21 21 20 20 20 19 19 18 19 19 19 18 18 18 18 18 18 18 19 19 18 17 17 16 16 15 15 15 15 14 14 15 15 15 15 15 16 16 16 16 16 17 17 17 17 17
20 21 21 21 21 21 21 20 18 17 18 18 18 19 20 19 19 18 18 17 18 18 18 17 17 17 16 15 14 14 15 15 14 15 15 15 15 16 16 16 16 16 16 17 17 17 17 17 17
21 21 22 22 23 23 22 21 19 18 18 18 19 19 20 20 19 18 18 17 17 17 16 17 17 17 17 16 15 14 15 15 15 15 15 15 15 16 16 17 16 16 16 17 18 17 17 17 17
22 23 23 23 23 24 24 22 20 20 19 20 20 20 21 21 20 19 19 19 18 18 17 17 18 18 18 17 16 15 15 15 14 15 15 16 16 16 17 17 17 17 17 17 17 17 17 17 17
23 24 24 24 24 24 24 23 20 20 20 20 21 21 22 22 21 21 21 20 20 19 18 18 18 18 18 17 17 16 16 15 15 15 16 16 16 16 17 17 17 17 18 18 17 18 18 17 18
Wind_Direction
258 260 264 262 263 266 275 281 290 302 308 321 333 340 344 343 342 335 329 327 324 322 319 312 313 319 327 332 334 337 336 333 334 329 329 325 316 312 311 305 309 311 308 296 293 291 293 294 285
257 261 264 264 264 272 276 278 289 299 309 317 325 333 338 338 336 329 324 322 317 316 315 313 310 313 320 323 328 330 327 324 321 318 319 314 313 311 307 298 296 299 303 301 294 293 295 294 286
259 262 265 267 270 275 275 280 289 295 303 314 321 325 332 332 328 324 323 322 320 314 310 310 304 307 314 319 322 321 319 318 313 307 309 305 304 301 298 291 289 288 291 296 299 294 295 295 288
259 263 264 267 272 273 271 277 285 289 294 306 311 317 321 323 321 319 321 325 318 310 309 304 297 303 307 309 314 315 317 317 314 306 301 298 299 297 293 290 286 285 286 288 294 297 299 294 290
257 261 262 263 266 268 270 269 275 278 284 301 304 310 315 315 314 317 319 321 320 315 304 303 297 299 300 300 302 307 310 312 307 302 299 296 296 297 291 290 285 285 288 294 299 299 298 292 289
256 258 257 259 262 264 265 263 268 274 281 287 294 299 308 316 313 312 315 317 315 313 307 299 301 297 298 301 302 302 301 298 294 293 298 298 293 293 288 282 284 286 285 291 298 293 289 294 292
255 257 256 257 260 263 267 264 265 272 282 289 291 294 303 310 309 310 311 311 311 310 309 306 303 301 298 297 296 297 297 292 289 291 293 292 290 291 292 284 283 284 286 288 291 289 287 291 290
254 256 256 256 259 263 266 267 268 271 281 289 292 299 305 307 308 311 311 312 309 307 309 309 305 301 300 296 291 289 290 289 287 284 287 285 283 285 288 284 281 283 285 283 287 288 287 288 286
254 255 255 254 255 259 262 264 268 274 278 284 287 296 303 305 308 309 309 311 311 309 311 308 309 304 298 294 294 292 287 281 279 282 286 284 281 282 284 280 278 281 283 281 283 285 287 285 285
254 255 254 251 250 254 259 262 269 274 276 280 285 291 299 306 312 313 311 311 316 315 317 316 312 305 295 288 289 289 288 285 276 275 281 281 280 282 283 279 276 279 281 281 281 283 286 283 279
255 254 253 250 251 255 258 262 269 274 281 287 289 289 291 301 312 314 315 316 316 316 313 313 308 303 299 291 289 287 285 282 277 274 272 269 271 278 281 280 277 278 280 282 280 281 283 278 277
254 254 255 253 253 256 258 262 266 274 282 285 286 288 291 294 306 307 313 317 315 311 308 304 301 299 297 294 291 284 281 279 276 272 268 268 263 272 280 276 278 280 281 281 279 279 279 276 274
251 253 255 252 252 257 259 259 263 271 277 281 284 284 291 297 301 304 301 307 310 308 305 304 295 294 291 291 292 283 280 278 274 273 269 267 268 273 276 274 280 280 281 282 283 279 277 277 277
253 253 254 253 253 255 256 255 260 269 273 278 282 282 285 289 296 296 299 303 303 302 300 301 294 291 290 293 293 286 282 277 271 272 268 268 270 272 275 277 276 278 279 282 282 276 276 278 276
253 255 254 254 255 255 259 256 259 264 268 273 279 281 280 282 283 288 293 296 297 296 292 292 290 286 287 289 287 282 282 277 271 272 271 271 272 275 278 277 278 280 280 283 282 279 278 278 273
253 253 251 253 254 255 256 256 256 260 265 269 273 275 276 276 277 281 286 291 295 294 289 291 290 282 282 282 281 281 281 276 274 274 272 273 275 280 280 278 279 279 281 283 284 282 280 278 274
256 255 252 253 254 254 257 258 256 256 261 264 265 270 272 271 273 277 282 286 290 291 288 287 287 281 277 278 278 281 278 276 275 274 275 274 276 277 278 279 280 280 281 283 285 284 282 281 277
256 255 252 252 254 255 257 259 255 255 258 263 263 266 266 268 271 273 278 282 287 289 288 286 281 277 277 279 281 280 279 276 275 273 274 274 275 276 277 280 281 280 280 281 285 287 283 280 276
252 253 251 253 253 254 254 256 257 257 258 260 261 266 265 268 267 268 273 278 281 285 287 284 281 276 277 279 281 279 279 275 276 272 272 274 274 273 276 279 282 281 281 283 286 284 282 278 275
251 252 252 252 253 254 251 253 255 255 255 257 259 264 266 267 265 267 269 273 278 281 282 281 276 275 277 277 280 278 273 271 272 273 276 277 274 269 272 278 282 281 281 284 284 283 280 277 273
251 253 254 254 252 253 255 253 254 254 256 257 260 262 262 265 263 264 265 269 276 280 280 282 277 274 278 275 277 280 278 276 276 277 277 275 273 272 271 275 279 281 282 283 283 283 281 277 275
252 254 255 255 252 253 257 258 253 254 256 260 261 262 266 267 265 263 264 266 270 273 276 279 276 275 281 278 277 276 275 275 275 274 272 269 269 270 271 275 281 282 281 282 283 281 281 278 278
251 251 252 253 253 254 257 260 256 255 255 259 260 261 265 264 263 263 262 263 267 270 273 276 276 278 281 278 276 274 274 274 273 271 271 271 269 270 273 276 281 284 283 282 281 280 280 279 278
248 248 250 252 254 255 257 261 259 258 256 256 259 261 262 263 261 260 260 261 265 269 271 275 277 279 281 277 272 272 273 273 272 272 275 275 274 274 276 276 279 283 285 282 281 281 280 280 281
244 247 249 251 253 256 258 261 261 261 257 258 259 261 263 263 262 261 262 263 267 270 269 274 277 278 279 276 272 270 274 271 266 268 274 278 277 276 275 276 279 283 285 282 281 283 282 281 282
244 245 249 253 254 255 256 259 262 262 261 260 261 262 262 264 264 263 266 266 269 272 273 274 276 276 274 275 276 273 275 269 264 266 272 277 278 277 276 277 280 282 284 282 282 284 283 281 281
244 244 247 253 256 257 256 259 262 263 262 262 264 264 263 264 262 262 265 268 271 272 272 271 272 275 275 276 275 274 274 267 264 266 270 273 275 275 276 279 281 283 284 283 282 285 283 281 281
246 245 247 250 255 257 258 260 263 263 265 265 264 264 265 265 265 264 263 267 271 272 271 268 269 274 278 276 273 274 273 270 268 269 271 274 275 275 277 279 280 281 283 284 282 284 283 282 281
250 249 249 251 256 259 262 262 264 265 266 265 266 266 267 265 263 263 262 265 268 270 270 270 269 271 276 276 272 272 272 271 269 268 270 274 274 274 278 282 280 280 282 286 283 280 281 282 283
251 252 250 251 257 261 264 264 266 268 268 268 267 267 267 266 264 264 263 263 266 269 270 270 270 273 274 275 270 271 271 270 268 268 272 275 278 277 278 281 282 281 280 283 284 281 282 283 282
Height
5879 5879 5879 5880 5881 5880 5879 5879 5879 5879 5880 5880 5879 5879 5878 5879 5879 5881 5879 5877 5876 5876 5876 5875 5875 5874 5874 5873 5873 5872 5872 5872 5872 5872 5872 5873 5873 5873 5873 5874 5874 5874 5874 5875 5875 5875 5876 5876 5877
5878 5878 5879 5879 5879 5879 5879 5879 5879 5879 5879 5879 5879 5878 5878 5877 5877 5877 5876 5876 5876 5875 5875 5875 5874 5873 5873 5873 5872 5871 5871 5871 5871 5871 5871 5872 5872 5872 5873 5873 5873 5873 5874 5874 5874 5874 5875 5875 5875
5876 5877 5878 5878 5877 5878 5878 5878 5878 5878 5878 5878 5878 5878 5877 5876 5876 5876 5875 5875 5875 5875 5874 5874 5873 5873 5872 5871 5871 5870 5870 5870 5870 5870 5871 5871 5871 5871 5871 5872 5872 5872 5872 5873 5873 5873 5873 5874 5874
5875 5876 5877 5877 5876 5876 5876 5876 5877 5877 5877 5877 5877 5876 5876 5876 5875 5875 5874 5874 5873 5873 5873 5872 5871 5871 5871 5870 5870 5869 5869 5869 5869 5869 5869 5870 5870 5870 5870 5870 5871 5871 5871 5872 5872 5872 5872 5872 5872
5873 5874 5875 5875 5874 5874 5874 5875 5875 5875 5875 5875 5875 5874 5874 5874 5874 5873 5873 5872 5872 5872 5871 5870 5870 5869 5869 5869 5868 5868 5868 5868 5868 5868 5868 5868 5869 5869 5869 5869 5869 5870 5870 5870 5871 5871 5871 5871 5871
5872 5872 5873 5873 5872 5873 5873 5873 5873 5873 5874 5874 5874 5874 5873 5872 5872 5872 5871 5871 5870 5870 5869 5868 5868 5867 5867 5867 5867 5867 5867 5867 5867 5867 5867 5867 5867 5868 5868 5868 5868 5868 5869 5869 5869 5869 5869 5869 5869
5870 5870 5871 5871 5871 5871 5871 5871 5871 5871 5872 5872 5872 5872 5871 5871 5870 5870 5869 5869 5868 5868 5867 5866 5866 5866 5866 5865 5865 5865 5865 5865 5865 5865 5866 5866 5866 5866 5866 5866 5867 5867 5867 5867 5867 5868 5868 5868 5868
5867 5869 5868 5869 5869 5869 5869 5869 5869 5869 5870 5870 5871 5870 5870 5869 5869 5868 5868 5867 5866 5866 5865 5864 5864 5864 5864 5864 5863 5863 5863 5863 5864 5864 5864 5864 5865 5865 5865 5865 5865 5865 5865 5866 5866 5866 5866 5866 5866
5865 5867 5866 5866 5867 5867 5867 5867 5867 5867 5868 5868 5868 5868 5868 5867 5867 5866 5866 5865 5865 5864 5863 5862 5862 5862 5862 5862 5862 5861 5861 5862 5862 5862 5862 5862 5863 5863 5863 5863 5863 5863 5864 5864 5864 5864 5864 5864 5864
5862 5863 5864 5864 5864 5865 5864 5864 5865 5865 5866 5866 5866 5866 5866 5866 5865 5864 5864 5863 5862 5862 5861 5861 5860 5860 5860 5860 5859 5859 5859 5859 5860 5860 5860 5860 5861 5861 5861 5861 5861 5861 5861 5862 5862 5862 5862 5862 5862
5859 5860 5861 5861 5861 5862 5862 5862 5862 5863 5863 5864 5864 5864 5864 5864 5863 5863 5862 5861 5860 5859 5859 5858 5858 5858 5857 5857 5857 5857 5857 5857 5857 5858 5858 5859 5858 5858 5859 5859 5859 5859 5859 5859 5859 5859 5859 5860 5860
5856 5857 5857 5858 5858 5859 5859 5860 5860 5860 5861 5861 5861 5861 5862 5862 5861 5861 5860 5859 5858 5858 5857 5856 5856 5855 5855 5854 5854 5855 5855 5855 5855 5856 5856 5855 5855 5856 5856 5856 5856 5856 5856 5857 5857 5857 5857 5857 5857
5853 5854 5854 5855 5855 5856 5856 5857 5857 5858 5859 5858 5858 5858 5859 5859 5859 5858 5858 5857 5856 5855 5855 5854 5853 5853 5852 5852 5852 5852 5852 5853 5853 5853 5853 5853 5854 5854 5853 5853 5853 5853 5853 5854 5854 5854 5854 5854 5854
5849 5850 5851 5852 5852 5852 5853 5854 5855 5856 5856 5855 5855 5855 5855 5856 5855 5855 5855 5854 5854 5853 5852 5851 5851 5850 5850 5849 5849 5850 5850 5850 5851 5851 5851 5851 5851 5851 5851 5851 5851 5850 5850 5850 5850 5850 5851 5851 5851
5846 5847 5848 5849 5849 5849 5850 5851 5852 5853 5852 5852 5852 5852 5852 5852 5853 5852 5852 5851 5851 5850 5850 5849 5848 5847 5847 5847 5847 5847 5848 5848 5848 5848 5848 5848 5848 5848 5848 5848 5848 5847 5847 5847 5847 5847 5847 5847 5847
5843 5844 5845 5846 5845 5845 5847 5848 5849 5848 5848 5849 5849 5848 5849 5849 5849 5849 5849 5849 5848 5848 5847 5846 5845 5845 5845 5845 5845 5845 5845 5845 5845 5845 5845 5846 5845 5845 5845 5845 5844 5844 5844 5843 5843 5843 5843 5843 5843
5839 5840 5841 5843 5842 5842 5842 5844 5845 5845 5845 5845 5845 5846 5846 5846 5846 5846 5846 5846 5846 5845 5844 5844 5843 5843 5842 5843 5843 5843 5842 5842 5842 5842 5842 5842 5842 5842 5842 5842 5841 5841 5840 5840 5840 5839 5839 5839 5839
5836 5836 5837 5838 5838 5838 5838 5840 5841 5841 5841 5842 5842 5843 5843 5843 5843 5843 5843 5843 5843 5842 5842 5841 5841 5840 5840 5840 5840 5839 5839 5839 5839 5839 5839 5839 5839 5838 5838 5838 5838 5837 5837 5837 5836 5835 5835 5835 5835
5831 5832 5833 5835 5834 5834 5834 5835 5837 5837 5837 5838 5838 5839 5840 5840 5840 5840 5840 5840 5840 5839 5839 5839 5838 5838 5837 5837 5837 5836 5836 5836 5836 5835 5835 5835 5835 5835 5835 5835 5835 5834 5834 5833 5833 5832 5831 5831 5831
5826 5827 5829 5830 5829 5829 5830 5831 5832 5833 5834 5835 5835 5835 5836 5836 5836 5836 5836 5836 5837 5836 5836 5835 5835 5835 5834 5834 5834 5833 5833 5832 5832 5832 5831 5831 5830 5831 5831 5831 5831 5831 5830 5829 5829 5828 5827 5827 5827
5821 5823 5824 5825 5825 5825 5825 5827 5828 5829 5830 5831 5832 5832 5832 5832 5832 5832 5832 5833 5833 5833 5832 5832 5832 5831 5831 5830 5830 5830 5829 5829 5828 5828 5828 5827 5827 5827 5828 5828 5827 5827 5826 5825 5825 5824 5824 5823 5823
5817 5819 5819 5819 5820 5820 5822 5822 5825 5826 5827 5828 5828 5828 5828 5828 5828 5828 5828 5828 5829 5829 5829 5828 5828 5828 5827 5826 5826 5826 5825 5825 5824 5824 5824 5823 5823 5824 5824 5824 5823 5823 5822 5821 5821 5820 5819 5819 5819
5812 5814 5814 5814 5815 5816 5817 5818 5821 5822 5823 5824 5824 5825 5825 5825 5824 5824 5824 5824 5825 5825 5824 5824 5824 5823 5823 5822 5822 5821 5821 5820 5820 5820 5820 5820 5820 5820 5820 5820 5819 5819 5818 5817 5817 5816 5816 5815 5814
5807 5808 5809 5809 5810 5811 5813 5814 5816 5818 5819 5820 5821 5821 5821 5821 5821 5821 5821 5821 5821 5821 5820 5820 5819 5819 5818 5817 5817 5816 5816 5816 5816 5816 5816 5816 5816 5816 5816 5816 5815 5815 5814 5813 5813 5812 5812 5811 5810
5802 5804 5804 5805 5805 5807 5809 5809 5812 5813 5814 5816 5816 5816 5816 5817 5817 5817 5817 5816 5817 5816 5816 5815 5815 5814 5813 5812 5812 5811 5812 5812 5812 5812 5812 5812 5812 5812 5812 5811 5811 5810 5810 5809 5809 5808 5807 5807 5806
5798 5800 5801 5801 5802 5804 5804 5805 5808 5809 5810 5811 5811 5812 5812 5812 5813 5813 5812 5812 5812 5812 5812 5811 5810 5809 5809 5808 5807 5807 5807 5807 5807 5808 5808 5808 5808 5808 5807 5807 5807 5806 5806 5805 5804 5803 5803 5802 5801
5794 5795 5797 5798 5798 5799 5800 5802 5804 5804 5805 5806 5806 5807 5807 5808 5808 5808 5808 5808 5807 5807 5806 5806 5805 5805 5805 5804 5803 5803 5803 5803 5803 5804 5804 5804 5804 5804 5804 5803 5803 5802 5801 5801 5800 5799 5798 5797 5797
5790 5791 5792 5792 5793 5794 5796 5797 5799 5800 5801 5801 5801 5802 5802 5803 5803 5803 5802 5802 5802 5802 5801 5801 5801 5801 5800 5800 5799 5799 5799 5800 5800 5800 5800 5800 5800 5800 5799 5799 5798 5797 5797 5796 5796 5795 5794 5793 5792
5785 5786 5787 5788 5788 5789 5790 5794 5795 5795 5796 5796 5797 5797 5797 5797 5798 5798 5798 5797 5797 5797 5797 5796 5796 5796 5796 5796 5795 5795 5795 5795 5795 5796 5796 5796 5795 5795 5795 5794 5793 5793 5792 5791 5790 5790 5789 5788 5788
5780 5781 5782 5783 5783 5784 5785 5789 5789 5790 5790 5790 5791 5791 5791 5792 5792 5793 5793 5793 5793 5792 5792 5792 5791 5791 5791 5791 5791 5791 5791 5791 5791 5791 5792 5791 5790 5790 5790 5789 5789 5788 5787 5786 5785 5785 5784 5784 5783